Weather History for KATL - March, 2014

Change the Weather History Date:

Tuesday, March 11, 2014

  Actual Average Record
Temperature  
Mean Temperature 64 °F 53 °F  
Max Temperature 78 °F 63 °F 82 °F (1990)
Min Temperature 50 °F 43 °F 20 °F (1934)
Degree Days  
Heating Degree Days 1 12  
Month to date heating degree days 141 147  
Since 1 July heating degree days 2544 2402  
Cooling Degree Days 0 0  
Month to date cooling degree days 0 0  
Year to date cooling degree days 2 1  
Growing Degree Days 14 (Base 50)    
Moisture  
Dew Point 48 °F    
Average Humidity 59    
Maximum Humidity 80    
Minimum Humidity 37    
Precipitation  
Precipitation 0.01 in 0.16 in 1.88 in (1962)
Month to date precipitation 0.66 1.77  
Year to date precipitation 7.82 10.64  
Snow  
Snow 0.00 in 0.00 in 0.00 in (2002)
Month to date snowfall 0.0 0.3  
Since 1 July snowfall 5.0 2.4  
Snow Depth 0.00 in    
Sea Level Pressure  
Sea Level Pressure 29.83 in    
Wind  
Wind Speed 6 mph (West)    
Max Wind Speed 23 mph    
Max Gust Speed 29 mph    
Visibility 10 miles    
Events Rain    
T = Trace of Precipitation, MM = Missing Value Source: NWS Daily Summary

Daily Weather History Graph

Daily Weather History Graph

Search for Another Location

Airport or City:

Trip Planner

Search our weather history database for the weather conditions in past years. The results will help you decide how hot, cold, wet, or windy it might be!

Date:

Astronomy

Mar. 11, 2014 Rise Set
Actual Time 7:53 AM EDT 7:42 PM EDT
Civil Twilight 7:28 AM EDT 8:07 PM EDT
Nautical Twilight 6:59 AM EDT 8:36 PM EDT
Astronomical Twilight 6:30 AM EDT 9:05 PM EDT
Moon 3:28 PM EDT (3/11) 4:36 AM EDT (3/11)
Length of Visible Light 12h 38m
Length of Day
11h 49m
Waxing Gibbous, 78% of the Moon is Illuminated
Mar 11
Waxing Gibbous
Mar 16
Full
Mar 23
Last Quarter
Mar 30
New
Apr 7
First Quarter

Hourly Weather History & Observations

Time (EDT) Temp. Dew Point Humidity Pressure Visibility Wind Dir Wind Speed Gust Speed Precip Events Conditions
12:52 AM 57.0 °F 42.1 °F 57% 29.93 in 10.0 mi West 4.6 mph - N/A   Clear
1:52 AM 55.9 °F 43.0 °F 62% 29.91 in 10.0 mi West 4.6 mph - N/A   Clear
2:52 AM 55.9 °F 44.1 °F 64% 29.90 in 10.0 mi West 4.6 mph - N/A   Clear
3:52 AM 53.1 °F 44.1 °F 71% 29.89 in 10.0 mi West 3.5 mph - N/A   Clear
4:52 AM 54.0 °F 45.0 °F 72% 29.88 in 10.0 mi West 3.5 mph - N/A   Clear
5:52 AM 52.0 °F 44.1 °F 74% 29.87 in 10.0 mi WNW 4.6 mph - N/A   Clear
6:52 AM 50.0 °F 44.1 °F 80% 29.88 in 10.0 mi WNW 4.6 mph - N/A   Clear
7:52 AM 51.1 °F 45.0 °F 80% 29.88 in 9.0 mi WNW 6.9 mph - N/A   Partly Cloudy
8:52 AM 55.0 °F 48.0 °F 77% 29.89 in 10.0 mi West 4.6 mph - N/A   Partly Cloudy
9:52 AM 60.1 °F 48.9 °F 67% 29.89 in 10.0 mi WNW 6.9 mph - N/A   Partly Cloudy
10:52 AM 63.0 °F 48.9 °F 60% 29.89 in 10.0 mi WNW 11.5 mph - N/A   Scattered Clouds
11:52 AM 66.9 °F 48.0 °F 51% 29.87 in 10.0 mi WNW 9.2 mph - N/A   Scattered Clouds
12:52 PM 72.0 °F 50.0 °F 46% 29.86 in 10.0 mi West 9.2 mph - N/A   Partly Cloudy
1:52 PM 73.0 °F 48.9 °F 42% 29.83 in 10.0 mi West 3.5 mph - N/A   Scattered Clouds
2:52 PM 75.0 °F 50.0 °F 41% 29.81 in 10.0 mi Variable 4.6 mph 19.6 mph N/A   Scattered Clouds
3:52 PM 77.0 °F 50.0 °F 39% 29.78 in 10.0 mi WSW 5.8 mph 21.9 mph N/A   Mostly Cloudy
4:52 PM 78.1 °F 50.0 °F 37% 29.75 in 10.0 mi Variable 5.8 mph - N/A   Mostly Cloudy
5:52 PM 77.0 °F 50.0 °F 39% 29.74 in 10.0 mi SW 6.9 mph - N/A   Mostly Cloudy
6:52 PM 75.0 °F 48.9 °F 40% 29.74 in 10.0 mi SSW 8.1 mph - N/A   Mostly Cloudy
7:52 PM 72.0 °F 48.9 °F 44% 29.75 in 10.0 mi SSW 6.9 mph - N/A   Mostly Cloudy
8:52 PM 70.0 °F 50.0 °F 49% 29.75 in 10.0 mi South 5.8 mph - N/A   Overcast
9:52 PM 71.1 °F 51.1 °F 49% 29.75 in 9.0 mi SSW 9.2 mph - N/A   Overcast
10:52 PM 66.9 °F 54.0 °F 63% 29.74 in 7.0 mi WSW 3.5 mph - 0.00 in Rain Light Rain
11:52 PM 66.9 °F 53.1 °F 61% 29.73 in 7.0 mi SSW 8.1 mph - 0.00 in   Overcast